Hourly Data Report for October 02, 2015

All times are specified in Local Standard Time (LST). Add 1 hour to adjust for Daylight Saving Time where and when it is observed.

OTTAWA INTL A
ONTARIO

45°19'00.000" N
75°40'00.000" W
114.90 m
6106001
71628
YOW

Download Data

Hourly Data (October 2015)
Hourly Data Report for October 2, 2015
Temp Definition
°C
Dew Point Temp Definition
°C
Rel Hum Definition
%
Wind Dir Definition
10's deg

Wind Spd Definition
km/h
Visibility Definition
km
Stn Press Definition
kPa
Hmdx Definition


Wind Chill Definition


Weather Definition


TIME
00:00 Legend Double Dagger 6.1 0.0 65 1 17 24.1 101.75     LegendNANA
01:00 Legend Double Dagger 5.4 -0.2 67 1 18 24.1 101.76     Mainly Clear
02:00 Legend Double Dagger 5.1 -0.3 68 1 20 24.1 101.76     LegendNANA
03:00 Legend Double Dagger 4.3 -0.7 70 36 17 24.1 101.76     LegendNANA
04:00 Legend Double Dagger 4.1 -1.3 68 1 18 24.1 101.82     Mainly Clear
05:00 Legend Double Dagger 3.5 -1.5 70 1 18 24.1 101.85     LegendNANA
06:00 Legend Double Dagger 3.4 -1.8 69 1 17 24.1 101.86     LegendNANA
07:00 Legend Double Dagger 4.4 -1.8 64 36 19 24.1 101.93     Mainly Clear
08:00 Legend Double Dagger 6.7 -1.0 58 2 23 24.1 101.93     LegendNANA
09:00 Legend Double Dagger 8.4 -0.4 54 3 25 24.1 101.98     LegendNANA
10:00 Legend Double Dagger 10.4 -1.9 42 5 36 24.1 101.97     Mostly Cloudy
11:00 Legend Double Dagger 11.1 -1.6 41 5 28 24.1 101.99     LegendNANA
12:00 Legend Double Dagger 11.4 -2.4 38 5 31 24.1 101.97     LegendNANA
13:00 Legend Double Dagger 11.9 -2.7 36 2 34 24.1 101.91     Mostly Cloudy
14:00 Legend Double Dagger 12.0 -1.5 39 2 30 24.1 101.87     LegendNANA
15:00 Legend Double Dagger 11.7 -1.4 40 4 24 24.1 101.88     LegendNANA
16:00 Legend Double Dagger 11.0 -2.4 39 3 30 24.1 101.89     Cloudy
17:00 Legend Double Dagger 9.6 -1.7 45 6 14 24.1 101.95     LegendNANA
18:00 Legend Double Dagger 7.5 -0.7 56 5 12 24.1 102.01     LegendNANA
19:00 Legend Double Dagger 7.3 -0.9 56 6 15 24.1 102.05     Mostly Cloudy
20:00 Legend Double Dagger 5.1 -1.4 63 5 15 24.1 102.08     LegendNANA
21:00 Legend Double Dagger 5.1 -1.1 64 4 14 24.1 102.09     LegendNANA
22:00 Legend Double Dagger 5.3 -2.1 59 3 14 24.1 102.08     Mostly Cloudy
23:00 Legend Double Dagger 5.3 -1.6 61 2 18 24.1 102.06     LegendNANA

Notes on Data Quality.

Legend

  • E = Estimated
  • M = Missing
  • NA = Not Available
  • ‡ = Partner data that is not subject to review by the National Climate Archives
Date modified: